Details for Norwegian Air International at LEMD




Go Back


Latest METAR
Local Time

LEMD 181300Z 17006KT 090V240 9999 FEW050 28/16 Q1018 NOSIG
18/09/2018, 15:31:15

Description
Results
Norwegian Air International Logo
Number of Pilots based at LEMD
1 Pilots Based here
Number of Norwegian Air International Flights Departed from LEMD
1 Flights Departed
Number of Norwegian Air International Flights Arrived at LEMD
2 Flights Arrived
Number of Norwegian Air International Schedules Departing from LEMD
29 Schedules
Number of Norwegian Air International Schedules Arriving at LEMD
29 Schedules
Number of Norwegian Air International Schedules Departing from LEMD availible today
12 Schedules Today
Number of Norwegian Air International Schedules Arriving at LEMD availible today
12 Schedules Today
Average Landing Rate at LEMD
-208 fpm
Norwegian Air International Average Landing Rate at LEMD
-77 fpm
Total Fuel Purchased at LEMD by Norwegian Air International
9,159.39 kgs / 20,192.79 lbs

Pilots Based at LEMD


Pilot ID
Pilot Name
Pilot Rank
No. of Flights
No. of Flying Hours
Felix Strässer
6
17.43
Content